Location: Unspecified
(40.7945°N, 0.0000°E)
Time: 02:30:01
(UTC+00:00)

Altair - Pass Details

Date: 30 January 2021
Orbit: 1501 x 1682 km, 47.2° (Epoch: 01 March)

Event Time Altitude Azimuth Distance (km) Brightness Sun altitude
Rises 08:41:41 0° 295° (WNW) 4,925 9.5 13.8°
Reaches altitude 10° 08:44:50 10° 296° (WNW) 3,944 9.1 14.2°
Maximum altitude 08:55:04 89° 25° (NNE) 1,683 8.0 15.7°
Drops below altitude 10° 09:05:11 10° 119° (ESE) 3,896 11.5 17.2°
Sets 09:08:16 0° 119° (ESE) 4,863 11.6 17.6°
